Location: Star Hoppers Observatory
(42.7905°N, 83.6127°W)
Time: 23:33:00
(UTC-04:00)

Amateur Radio Satellites - All Passes

Search period start: 22 July 2014 23:03
Search period end: 23 July 2014 23:03
Location: Star Hoppers Observatory, 42.7905°N, 83.6127°W

Satellite Date Start Highest point End Downlink Frequencies (MHz)
Time Altitude Azimuth
SO-50 22 Jul 23:16:44 23:21:17 45° 50° (NE) 23:25:53 436.795 FM
HO-68 22 Jul 23:24:47 23:29:48 20° 269° (W) 23:34:50 435.675 MHz FM
RS-15 22 Jul 23:58:36 00:09:38 70° 52° (NE) 00:21:00 29.354 - 29.394 USB, Beacon 29.352 USB
MaSat-1 23 Jul 00:01:56 00:05:49 69° 299° (WNW) 00:10:25 437.345 MHz
FUNcube-1 23 Jul 00:03:44 00:07:25 26° 265° (W) 00:11:02 145.950 - 145.970 MHz USB
UOSAT-12 23 Jul 00:16:24 00:19:45 19° 39° (NE) 00:23:05 437.025 FM, 437.400 FM
SO-50 23 Jul 00:57:47 01:01:37 24° 247° (WSW) 01:05:29 436.795 FM
Lituanica SAT-1 23 Jul 01:29:50 01:31:57 49° 143° (SE) 01:34:04 437.275 MHz beacon
MaSat-1 23 Jul 01:43:09 01:44:18 11° 321° (NW) 01:45:28 437.345 MHz
UOSAT-12 23 Jul 01:55:43 02:00:28 76° 238° (WSW) 02:05:08 437.025 FM, 437.400 FM
Sapphire 23 Jul 02:05:06 02:08:59 20° 106° (ESE) 02:12:53 437.095 MHz 1200 baud AX-25 AFSK
ISS 23 Jul 02:09:40 02:12:17 21° 134° (SE) 02:14:54 145.800 FM
RS-15 23 Jul 02:11:42 02:21:12 35° 254° (WSW) 02:31:02 29.354 - 29.394 USB, Beacon 29.352 USB
PCSat 23 Jul 02:37:47 02:42:50 42° 112° (ESE) 02:47:55 145.825 MHz
Oscar 19 23 Jul 02:40:49 02:45:36 37° 97° (E) 02:50:21 437.125 CW, 437.150 USB
Lituanica SAT-1 23 Jul 03:03:31 03:05:02 16° 341° (NNW) 03:06:34 437.275 MHz beacon
Oscar 16 23 Jul 03:07:46 03:12:55 69° 102° (ESE) 03:18:03 437.025 USB, Beacon 2401.1428
ITAMSAT 1 23 Jul 03:14:52 03:19:37 35° 97° (E) 03:24:19 435.822 SSB
Gurwin Techsat 1B 23 Jul 03:17:56 03:21:10 16° 90° (E) 03:24:22 435.225 FM
JAS-1B 23 Jul 03:22:21 03:31:00 36° 91° (E) 03:38:40 435.800 - 435.900 CW/SSB
AO-27 23 Jul 03:32:04 03:37:09 52° 100° (E) 03:42:11 436.795 MHz FM
Uribyol 2 23 Jul 03:35:50 03:40:57 59° 101° (E) 03:46:02 436.500 FM
OPAL 23 Jul 03:37:41 03:41:47 27° 63° (ENE) 03:45:54 ?
ISS 23 Jul 03:45:31 03:48:48 52° 331° (NNW) 03:52:07 145.800 FM
Sapphire 23 Jul 03:46:37 03:51:56 59° 304° (NW) 03:57:19 437.095 MHz 1200 baud AX-25 AFSK
AO-Echo 23 Jul 03:49:55 03:55:08 80° 103° (ESE) 04:00:08 ?
Oscar 19 23 Jul 04:20:25 04:24:48 29° 294° (WNW) 04:29:10 437.125 CW, 437.150 USB
PCSat 23 Jul 04:21:33 04:26:22 32° 311° (NW) 04:31:12 145.825 MHz
TMSAT-1 23 Jul 04:36:15 04:41:31 61° 101° (E) 04:46:44 436.925 FM
Oscar 16 23 Jul 04:48:33 04:51:43 17° 300° (WNW) 04:54:53 437.025 USB, Beacon 2401.1428
ITAMSAT 1 23 Jul 04:54:32 04:59:00 30° 294° (WNW) 05:03:27 435.822 SSB
Gurwin Techsat 1B 23 Jul 04:56:19 05:01:36 66° 287° (WNW) 05:06:51 435.225 FM
AO-7 23 Jul 05:05:43 05:12:55 31° 96° (E) 05:20:01 29.400 - 29.500 MHz
JAS-1B 23 Jul 05:12:22 05:21:55 61° 293° (WNW) 05:30:23 435.800 - 435.900 CW/SSB
AO-27 23 Jul 05:12:25 05:16:17 22° 298° (WNW) 05:20:08 436.795 MHz FM
OPAL 23 Jul 05:15:55 05:20:30 38° 260° (W) 05:25:07 ?
Uribyol 2 23 Jul 05:16:24 05:19:58 19° 299° (WNW) 05:23:32 436.500 FM
ISS 23 Jul 05:23:33 05:26:06 20° 351° (N) 05:28:39 145.800 FM
AO-Echo 23 Jul 05:30:27 05:33:10 15° 301° (WNW) 05:35:51 ?
Sapphire 23 Jul 05:34:07 05:36:33 13° 325° (NW) 05:38:59 437.095 MHz 1200 baud AX-25 AFSK
Uosat F 23 Jul 05:41:03 05:46:01 57° 101° (E) 05:50:56 435.120 FM
STRAND 1 23 Jul 05:52:16 05:54:21 13° 57° (ENE) 05:56:26 ?
Lituanica SAT-1 23 Jul 06:10:44 06:12:15 16° 19° (NNE) 06:13:47 437.275 MHz beacon
TMSAT-1 23 Jul 06:17:18 06:20:57 19° 299° (WNW) 06:24:35 436.925 FM
AO-7 23 Jul 06:57:57 07:06:07 61° 294° (WNW) 07:14:14 29.400 - 29.500 MHz
ISS 23 Jul 07:01:04 07:03:42 21° 11° (NNE) 07:06:19 145.800 FM
JAS-1B 23 Jul 07:04:45 07:10:18 17° 315° (NW) 07:15:37 435.800 - 435.900 CW/SSB
JAS-2 23 Jul 07:16:12 07:21:53 35° 94° (E) 07:26:58 435.800 - 435.900 CW/SSB, 435.910 FM
Uosat F 23 Jul 07:20:54 07:24:22 19° 298° (WNW) 07:27:48 435.120 FM
STRAND 1 23 Jul 07:27:36 07:32:45 87° 76° (ENE) 07:37:56 ?
Hamsat 23 Jul 07:33:35 07:37:51 69° 101° (ESE) 07:42:08 145.90 MHz
KITSAT 1 23 Jul 07:40:22 07:47:47 41° 110° (ESE) 07:55:12 435.175 FM
Lituanica SAT-1 23 Jul 07:43:11 07:45:20 51° 217° (SW) 07:47:29 437.275 MHz beacon
SO-67 23 Jul 07:45:18 07:46:37 12° 91° (E) 07:47:57 435.3500 MHz FM
MaSat-1 23 Jul 08:19:18 08:24:20 41° 56° (NE) 08:29:15 437.345 MHz
ISS 23 Jul 08:37:35 08:40:56 62° 30° (NNE) 08:44:16 145.800 FM
Oscar 10/S400 23 Jul 08:37:37 09:39:19 19° 258° (WSW) 11:37:11 145.825 - 145.975 CW/USB, Beacon 145.810 USB
AO-7 23 Jul 08:52:56 08:57:14 15° 316° (NW) 09:01:32 29.400 - 29.500 MHz
JAS-2 23 Jul 09:01:13 09:06:59 37° 295° (WNW) 09:12:09 435.800 - 435.900 CW/SSB, 435.910 FM
HO-68 23 Jul 09:04:11 09:06:55 12° 87° (E) 09:09:39 435.675 MHz FM
STRAND 1 23 Jul 09:11:03 09:12:36 11° 272° (W) 09:14:10 ?
Hamsat 23 Jul 09:11:34 09:13:16 12° 298° (WNW) 09:14:58 145.90 MHz
SO-67 23 Jul 09:16:37 09:19:54 40° 287° (WNW) 09:23:11 435.3500 MHz FM
KITSAT 1 23 Jul 09:35:12 09:43:02 51° 310° (NW) 09:50:54 435.175 FM
MaSat-1 23 Jul 09:56:59 10:01:35 30° 254° (WSW) 10:06:03 437.345 MHz
Saudisat 1A 23 Jul 10:10:19 10:14:43 75° 122° (ESE) 10:19:09 436.775 MHz
Oscar 11 23 Jul 10:13:16 10:15:16 13° 90° (E) 10:17:15 145.825 FM, Beacon 2401.500 USB
ISS 23 Jul 10:15:02 10:17:22 18° 227° (SW) 10:19:41 145.800 FM
HO-68 23 Jul 10:48:35 10:55:46 75° 105° (ESE) 11:02:54 435.675 MHz FM
Sapphire 23 Jul 10:50:59 10:55:19 24° 45° (NE) 10:59:38 437.095 MHz 1200 baud AX-25 AFSK
PCSat 23 Jul 11:24:41 11:29:51 42° 52° (NE) 11:34:58 145.825 MHz
KITSAT 1 23 Jul 11:35:24 11:40:37 18° 336° (NNW) 11:45:51 435.175 FM
Oscar 11 23 Jul 11:47:34 11:51:50 59° 286° (WNW) 11:56:05 145.825 FM, Beacon 2401.500 USB
FUNcube-1 23 Jul 11:51:16 11:55:21 54° 100° (E) 11:59:26 145.950 - 145.970 MHz USB
Saudisat 1A 23 Jul 11:51:51 11:54:49 17° 321° (NW) 11:57:48 436.775 MHz
Sapphire 23 Jul 12:33:49 12:39:11 63° 244° (WSW) 12:44:31 437.095 MHz 1200 baud AX-25 AFSK
HO-68 23 Jul 12:37:24 12:42:46 24° 304° (NW) 12:48:09 435.675 MHz FM
Oscar 16 23 Jul 12:49:14 12:52:02 15° 59° (ENE) 12:54:50 437.025 USB, Beacon 2401.1428
PCSat 23 Jul 13:08:25 13:13:06 30° 251° (WSW) 13:17:45 145.825 MHz
AO-27 23 Jul 13:15:23 13:17:29 12° 57° (ENE) 13:19:35 436.795 MHz FM
Uribyol 2 23 Jul 13:18:26 13:20:58 14° 58° (ENE) 13:23:30 436.500 FM
AO-Echo 23 Jul 13:27:10 13:30:17 16° 60° (ENE) 13:33:26 ?
FUNcube-1 23 Jul 13:29:10 13:31:19 14° 297° (WNW) 13:33:29 145.950 - 145.970 MHz USB
KITSAT 1 23 Jul 13:36:28 13:40:04 13° 7° (N) 13:43:39 435.175 FM
SO-50 23 Jul 13:36:49 13:37:18 10° 106° (ESE) 13:37:46 436.795 FM
Oscar 19 23 Jul 13:58:28 14:03:28 58° 72° (ENE) 14:08:29 437.125 CW, 437.150 USB
JAS-1B 23 Jul 14:06:40 14:14:14 34° 57° (ENE) 14:22:32 435.800 - 435.900 CW/SSB
AO-7 23 Jul 14:20:01 14:22:27 12° 40° (NE) 14:24:52 29.400 - 29.500 MHz
TMSAT-1 23 Jul 14:21:05 14:23:56 15° 59° (ENE) 14:26:47 436.925 FM
RS-15 23 Jul 14:23:52 14:33:48 39° 108° (ESE) 14:43:31 29.354 - 29.394 USB, Beacon 29.352 USB
Oscar 16 23 Jul 14:25:38 14:30:44 77° 257° (WSW) 14:35:53 437.025 USB, Beacon 2401.1428
ITAMSAT 1 23 Jul 14:33:32 14:38:39 59° 72° (ENE) 14:43:47 435.822 SSB
Gurwin Techsat 1B 23 Jul 14:39:26 14:43:54 28° 65° (ENE) 14:48:23 435.225 FM
AO-27 23 Jul 14:50:57 14:56:11 85° 75° (ENE) 15:01:27 436.795 MHz FM
Uribyol 2 23 Jul 14:54:30 14:59:43 86° 256° (WSW) 15:04:58 436.500 FM
AO-Echo 23 Jul 15:03:08 15:08:23 77° 257° (WSW) 15:13:45 ?
SO-50 23 Jul 15:12:37 15:17:05 87° 304° (NW) 15:21:40 436.795 FM
Uosat F 23 Jul 15:20:15 15:22:04 12° 57° (ENE) 15:23:54 435.120 FM
KITSAT 1 23 Jul 15:32:07 15:38:51 28° 37° (NE) 15:45:32 435.175 FM
Oscar 19 23 Jul 15:39:49 15:43:11 18° 269° (W) 15:46:34 437.125 CW, 437.150 USB
JAS-1B 23 Jul 15:55:31 16:03:55 68° 259° (W) 16:13:37 435.800 - 435.900 CW/SSB
TMSAT-1 23 Jul 15:57:51 16:03:09 82° 256° (WSW) 16:08:30 436.925 FM
AO-7 23 Jul 16:05:19 16:13:09 47° 62° (ENE) 16:21:00 29.400 - 29.500 MHz
UOSAT-12 23 Jul 16:08:14 16:12:04 27° 113° (ESE) 16:15:58 437.025 FM, 437.400 FM
ITAMSAT 1 23 Jul 16:15:01 16:18:31 18° 268° (W) 16:22:02 435.822 SSB
Gurwin Techsat 1B 23 Jul 16:18:45 16:23:42 39° 262° (W) 16:28:41 435.225 FM
AO-27 23 Jul 16:34:28 16:36:21 12° 272° (W) 16:38:14 436.795 MHz FM
RS-15 23 Jul 16:34:36 16:45:35 64° 310° (NW) 16:56:27 29.354 - 29.394 USB, Beacon 29.352 USB
Uribyol 2 23 Jul 16:39:19 16:39:56 10° 273° (W) 16:40:32 436.500 FM
Uosat F 23 Jul 16:55:00 17:00:04 86° 75° (ENE) 17:05:09 435.120 FM
SO-50 23 Jul 16:55:40 16:58:22 15° 324° (NW) 17:01:05 436.795 FM
Saudisat 1A 23 Jul 16:58:19 17:00:28 13° 35° (NE) 17:02:36 436.775 MHz
OPAL 23 Jul 17:24:19 17:29:14 50° 102° (ESE) 17:34:10 ?
KITSAT 1 23 Jul 17:27:10 17:35:19 88° 240° (WSW) 17:43:22 435.175 FM
JAS-2 23 Jul 17:28:26 17:34:15 24° 59° (ENE) 17:39:52 435.800 - 435.900 CW/SSB, 435.910 FM
UOSAT-12 23 Jul 17:47:42 17:52:02 40° 311° (NW) 17:56:29 437.025 FM, 437.400 FM
JAS-1B 23 Jul 17:52:09 17:56:23 14° 281° (W) 18:00:52 435.800 - 435.900 CW/SSB
AO-7 23 Jul 17:58:09 18:05:57 43° 261° (W) 18:13:49 29.400 - 29.500 MHz
Hamsat 23 Jul 18:27:43 18:31:46 52° 73° (ENE) 18:35:51 145.90 MHz
Saudisat 1A 23 Jul 18:36:24 18:40:50 74° 55° (NE) 18:45:13 436.775 MHz
Uosat F 23 Jul 18:38:01 18:39:29 11° 272° (W) 18:40:58 435.120 FM
RS-15 23 Jul 18:51:49 19:00:39 27° 340° (NNW) 19:09:31 29.354 - 29.394 USB, Beacon 29.352 USB
Oscar 10/S400 23 Jul 18:58:41 19:08:15 15° 139° (SE) 19:18:31 145.825 - 145.975 CW/USB, Beacon 145.810 USB
OPAL 23 Jul 19:03:59 19:07:47 22° 299° (WNW) 19:11:37 ?
JAS-2 23 Jul 19:10:37 19:18:30 82° 256° (WSW) 19:26:06 435.800 - 435.900 CW/SSB, 435.910 FM
KITSAT 1 23 Jul 19:24:27 19:29:34 19° 259° (W) 19:34:41 435.175 FM
HO-68 23 Jul 19:35:20 19:38:16 13° 48° (NE) 19:41:13 435.675 MHz FM
STRAND 1 23 Jul 19:37:59 19:42:20 27° 95° (E) 19:46:38 ?
SO-67 23 Jul 19:50:09 19:53:35 69° 76° (ENE) 19:57:03 435.3500 MHz FM
Hamsat 23 Jul 20:06:02 20:08:04 13° 270° (W) 20:10:07 145.90 MHz
Saudisat 1A 23 Jul 20:18:03 20:19:48 12° 252° (WSW) 20:21:33 436.775 MHz
JAS-2 23 Jul 20:59:45 21:04:23 17° 273° (W) 21:08:58 435.800 - 435.900 CW/SSB, 435.910 FM
RS-15 23 Jul 21:09:20 21:17:58 25° 16° (NNE) 21:26:43 29.354 - 29.394 USB, Beacon 29.352 USB
Oscar 11 23 Jul 21:09:59 21:11:47 13° 62° (ENE) 21:13:36 145.825 FM, Beacon 2401.500 USB
STRAND 1 23 Jul 21:16:54 21:21:35 37° 292° (WNW) 21:26:14 ?
HO-68 23 Jul 21:17:32 21:24:34 61° 68° (ENE) 21:31:36 435.675 MHz FM
SO-50 23 Jul 22:03:48 22:07:05 18° 39° (NE) 22:10:23 436.795 FM
MaSat-1 23 Jul 22:15:02 22:16:14 11° 97° (E) 22:17:29 437.345 MHz
Oscar 11 23 Jul 22:43:08 22:47:25 68° 258° (WSW) 22:51:44 145.825 FM, Beacon 2401.500 USB
FUNcube-1 23 Jul 22:48:21 22:52:35 49° 73° (ENE) 22:56:45 145.950 - 145.970 MHz USB
